Погода в Кэрнсе

Австралия     16°55′19″S   145°46′35″E
темп.,
°C
ветер,
м/с
пор.,
м/с
влажн.,
%
обл.,
%
осадки,
мм/ч
давл.,
гПа
погр.,
м
13 мая, чт
чт1301:00+19ююз12952 0.0 101337
04:00+19юз11920 0.0 101129
07:00+19юз11870 0.0 101229
10:00+27вюв23580 0.0 1013733
13:00+28в23540 0.0 10101247
16:00+26в23661 0.0 1010715
19:00+21ююв11963 0.0 101230
22:00+20ю12930 0.0 101338
14 мая, пт
пт1401:00+19ююз22870 0.0 101234
04:00+18ююз22830 0.0 101135
07:00+18ююз22860 0.0 101351
10:00+26вюв35650 0.0 10141057
13:00+27в34542 0.0 10111473
16:00+25вюв35654 0.0 1010959
19:00+20юв24942 0.0 1013121
22:00+19ю239812 0.0 101492
15 мая, сб
сб1501:00+19ю2397100 0.0 101385
04:00+18ююз239534 0.0 101382
07:00+18ю259714 0.0 1014123
10:00+25юв357064 0.1 10141107
13:00+25вюв356779 0.3 10131184
16:00+23вюв357124 0.3 1012907
19:00+19ююв25873 0.0 1014203
22:00+18ю25918 0.0 1015136
16 мая, вс
вс1601:00+17ю24903 0.0 101486
04:00+16ю24903 0.0 1014110
07:00+16ю26904 0.0 1015149
10:00+23юв47580 0.0 10161207
13:00+25вюв46524 0.0 10141400
16:00+22вюв466416 0.0 10141203
19:00+18ююв27827 0.0 1016422
22:00+16ю25879 0.0 1017132
17 мая, пн
пн1701:00+16ю258727 0.0 1016156
04:00+17ююв278463 0.0 1015329
07:00+18ююв277991 0.0 1016436
10:00+22юв376771 0.0 1017925
13:00+23юв376984 0.0 1015837
16:00+21юв377599 0.0 1014633
19:00+19ююв278991 0.0 1016421
22:00+19ююв289447 0.1 1017482